Location: Unspecified
(41.9031°N, 12.4386°E)
Time: 06:37:46
(UTC+02:00)

ISS - Pass Details

Date: 03 August 2020
Orbit: 418 x 420 km, 51.6° (Epoch: 12 August)

Event Time Altitude Azimuth Distance (km) Brightness Sun altitude
Rises 22:00:30 0° 292° (WNW) 2,368 1.5 -15.6°
Reaches altitude 10° 22:03:03 10° 272° (W) 1,500 -0.2 -16.0°
Maximum altitude 22:05:23 18° 228° (SW) 1,118 -1.6 -16.3°
Enters shadow 22:06:38 15° 201° (SSW) 1,236 -1.6 -16.5°
